Location: SAPM � Hemmingford
(45.0500°N, 73.5833°W)
Time: 07:45:19
(UTC-04:00)

Daily predictions for brighter satellites

Satellite Brightness Start Highest point End
(mag) Time Altitude Azimuth Time Altitude Azimuth Time Altitude Azimuth
NOSS 3-2 (C) 3.6 18:51:16 10° SSW 18:57:15 64° ESE 19:03:50 10° NE
Meteor 1-24 Rocket 3.8 18:52:04 10° N 18:57:44 88° W 19:03:09 10° S
Cosmos 1953 3.1 18:57:13 10° SSE 19:00:40 29° E 19:04:08 10° NNE
COSMO-SKYMED 1 2.6 18:56:46 10° NNE 19:01:06 69° E 19:05:26 10° S
In-Cosmos 22 4.4 18:56:22 10° N 19:02:03 54° ENE 19:07:39 10° SSE
ISS -1.6 18:59:51 10° S 19:02:11 18° SE 19:04:32 10° E
ERBS 4.4 19:05:43 10° NNW 19:08:03 17° NNE 19:10:24 10° ENE
ATLAS CENTAUR R/B 4.3 19:06:32 10° WNW 19:09:02 16° WSW 19:11:26 10° SSW
Cosmos 1072 Rocket 4.4 19:05:02 10° S 19:11:05 70° E 19:17:11 10° NNE
Cosmos 1674 4.0 19:08:44 10° NNE 19:11:46 21° ENE 19:14:46 10° ESE
Cosmos 2333 Rocket 4.1 19:07:16 10° WSW 19:12:26 33° NW 19:17:39 10° N
Cosmos 1076 Rocket 3.5 19:08:33 10° N 19:12:54 75° E 19:17:15 10° SSE
Cosmos 1470 4.3 19:10:36 10° SE 19:13:01 16° E 19:15:27 10° NE
Spot 2 Rocket 3.9 19:10:27 10° SE 19:15:11 42° ENE 19:19:55 10° N
Cosmos 1766 Rocket 3.5 19:13:44 10° N 19:18:06 70° E 19:22:26 10° SSE
ATLAS 5 CENTAUR R/B 1.8 19:14:34 10° SSW 19:19:22 81° SE 19:24:38 10° NE
Abrixas 3.2 19:19:13 10° SW 19:22:00 36° SSE 19:24:15 14° E
Cosmos 1269 Rocket 4.4 19:18:52 10° S 19:23:46 40° ESE 19:28:41 10° NE
Cosmos-2242 3.2 19:20:26 10° SSE 19:24:39 50° E 19:28:56 10° NNE
Cosmos 2237 Rocket 4.2 19:23:06 10° WSW 19:28:03 30° NW 19:33:00 10° N
SJ-6B 2.9 19:25:02 10° SSE 19:29:02 89° WSW 19:33:10 10° NNW
USA 215 4.0 19:23:43 10° ENE 19:29:28 32° SE 19:35:11 10° S
HJ-1C 3.5 19:28:39 10° SSE 19:31:55 50° ENE 19:35:12 10° N
ATLAS CENTAUR R/B 3.8 19:27:13 10° SW 19:32:29 80° SE 19:49:58 10° NE
Cosmos 1346 3.0 19:30:00 10° N 19:32:57 57° ENE 19:35:52 10° SSE
FengYun 1-2 T 4.4 19:28:04 10° SE 19:33:22 50° ENE 19:38:38 10° N
FREGAT/IRIS 2.6 19:30:50 10° SSE 19:33:55 86° E 19:37:02 10° N
Cosmos 1544 3.3 19:31:29 10° SSE 19:35:05 48° E 19:38:43 10° NNE
Cosmos 1484 Rocket 4.4 19:32:23 10° SSW 19:36:00 38° W 19:39:42 10° NNW
TELKOM 3 3.3 19:34:05 10° WNW 19:37:06 68° SSW 19:38:25 22° SE
SAR-Lupe-4 4.4 19:34:53 10° S 19:38:22 54° WSW 19:41:55 10° NNW
METEOR-M 4.1 19:33:30 10° SSE 19:38:50 77° ENE 19:44:12 10° N
Cosmos 724 4.3 19:33:07 10° SSW 19:39:02 80° ESE 19:45:10 10° NE
Cosmos 1758 3.4 19:41:04 10° S 19:45:10 84° W 19:49:19 10° N
Cosmos 1464 Rocket 4.3 19:39:58 10° SSW 19:46:11 71° W 19:52:21 10° N
Cosmos 2034 Rocket 4.0 19:40:03 10° S 19:46:20 88° E 19:52:43 10° N
Cosmos 1408 Rocket 4.5 19:44:41 10° NNW 19:48:54 51° W 19:53:04 10° S
Cosmos 1500 Rocket 3.7 19:45:48 10° N 19:50:11 55° ENE 19:54:33 10° SSE
SL-16 R/B 3.6 19:44:54 10° SW 19:50:15 41° NW 19:55:39 10° NNE
CZ-4B DEB 3.3 19:49:16 24° ESE 19:50:42 38° ENE 19:53:46 10° N
Cosmos 1842 Rocket 3.7 19:49:03 10° SSE 19:53:13 48° E 19:57:26 10° NNE
Meteor 1-21 Rocket 4.3 19:49:00 10° NNW 19:54:33 77° W 20:00:04 10° S
ERS-1 Rocket 4.3 19:55:49 20° ENE 19:56:37 21° ENE 20:00:15 10° NNE
FENGYUN 3A 3.7 19:52:06 10° SSE 19:57:21 58° ENE 20:02:40 10° N
Helios 1A 3.0 19:57:03 10° SSE 20:01:16 82° WSW 20:05:31 10° NNW
CZ-4C R/B 4.3 19:58:16 10° W 20:02:51 24° NNW 20:07:56 10° NNE
Cosmos 1328 4.1 20:02:10 10° N 20:05:58 42° ENE 20:06:52 36° ESE
Meteor 1-28 Rocket 4.5 20:03:06 10° N 20:06:39 42° WNW 20:10:09 10° SW
Cosmos 1110 Rocket 4.3 20:02:39 10° N 20:07:47 46° ENE 20:10:02 29° ESE
CZ-2D R/B 3.3 20:06:27 28° SE 20:08:16 56° ENE 20:12:06 10° N
Meteor 1-29 2.8 20:04:52 10° NNE 20:08:24 84° ESE 20:11:53 10° SSW
SL-14 R/B 4.3 20:06:08 10° NNE 20:09:16 28° ENE 20:09:16 28° ENE
GPS 2-04 Rocket1 4.3 20:12:47 10° SW 20:15:05 18° S 20:15:05 18° S
ASTEX 1 3.2 20:11:45 10° N 20:16:41 75° E 20:21:34 10° S
H-2A R/B 2.6 20:17:06 34° SSE 20:18:41 74° ENE 20:22:33 10° N
Cosmos 839 Rocket 4.2 20:11:19 10° NNW 20:19:12 84° NE 20:23:23 24° SE
Cosmos 1943 Rocket 2.6 20:14:16 10° NNW 20:19:39 43° ENE 20:21:11 36° E
Cosmos 1743 Rocket 4.4 20:15:25 10° NNW 20:19:44 51° W 20:23:58 10° SSW
Resurs 1-3 4.2 20:17:39 10° S 20:21:58 57° W 20:26:19 10° NNW
USA 186 4.1 20:27:05 11° N 20:27:05 11° N 20:27:12 10° N
ALOS 2.3 20:20:14 10° S 20:24:52 77° WSW 20:29:34 10° NNW
Cosmos 2369 Rocket 2.2 20:21:35 10° NNW 20:27:16 79° WSW 20:31:02 22° SSE
Cosmos 2251 Rocket 3.7 20:22:47 10° S 20:27:44 45° ESE 20:32:43 10° NNE
Helios 1B rocket 3.3 20:24:26 10° N 20:28:26 51° WNW 20:32:24 10° SSW
Resurs 01 Rocket 3.1 20:26:03 10° SSW 20:30:10 37° W 20:34:19 10° NNW
Cosmos 1943 3.0 20:24:53 10° SSW 20:30:30 80° ESE 20:36:09 10° NNE
CENTAUR R/B 2.4 20:26:58 10° SSW 20:33:03 79° SE 20:39:59 10° NE
SL-8 R/B 3.6 20:28:16 10° WSW 20:33:05 89° N 20:34:18 50° ENE
Gbstr 26 Del rocket 3.2 20:30:36 10° SW 20:35:08 71° SE 20:36:28 49° E
ISS -2.6 20:35:08 10° WSW 20:37:47 53° W 20:37:47 53° W
Cosmos 1331 Rocket 3.9 20:33:44 10° NNW 20:39:04 73° ENE 20:40:19 52° SE
Cosmos 2263 4.2 20:33:16 10° NNW 20:39:05 87° WSW 20:41:31 37° SSE
BREEZE-M DEB (TANK) 3.2 20:28:27 10° W 20:40:26 89° SSW 20:41:39 53° ESE
Cosmos 1733 3.8 20:37:47 10° SSW 20:41:35 56° W 20:45:24 10° N
ERBS 3.3 20:41:56 10° NW 20:44:31 43° NNW 20:44:31 43° NNW
Cosmos 1470 4.2 20:45:11 10° SW 20:48:49 38° WNW 20:52:28 10° N
Cosmos 2279 Rocket 3.9 20:48:02 36° SSE 20:50:35 65° E 20:56:44 10° NNE
GP-B 3.3 20:46:50 10° N 20:51:16 70° W 20:52:56 37° SSW
Cosmos 2058 3.1 20:48:15 10° N 20:51:47 64° NNW 20:51:47 64° NNW
Cosmos 1302 Rocket 4.1 20:47:34 10° NNW 20:52:26 56° NE 20:52:26 56° NE
Cosmos 2151 3.8 20:56:37 10° NNW 21:00:41 47° W 21:01:36 40° SW
H-2A R/B 4.0 21:03:10 21° NNE 21:03:10 21° NNE 21:04:56 10° N
Cosmos 1805 Rocket 4.0 20:57:37 10° N 21:01:08 55° N 21:01:08 55° N
ATLAS 5 CENTAUR R/B 4.1 21:00:46 10° W 21:04:45 23° NNW 21:09:02 10° NNE
Envisat 3.2 21:05:37 59° NNE 21:05:37 59° NNE 21:09:55 10° N
Cosmos 1655 Rocket 4.1 21:01:25 10° NNW 21:07:38 75° W 21:10:10 38° S
Cosmos 2221 3.9 21:09:42 32° N 21:09:42 32° N 21:12:05 10° N
Cosmos 2026 Rocket 4.2 21:02:11 10° NNW 21:08:15 67° W 21:11:21 30° SSW
Meteor 2-1 Rocket 4.2 21:08:31 49° S 21:10:13 89° W 21:16:09 10° N
Cosmos 1428 Rocket 4.4 21:04:01 10° N 21:10:20 85° E 21:11:17 67° SSE
Meteor 1-16 Rocket 4.4 21:07:29 10° SSW 21:12:44 63° WNW 21:18:02 10° N
USA 215 3.2 21:09:20 30° NE 21:12:53 80° NW 21:19:25 10° WSW
Cosmos 1656 Rocket 4.2 21:16:34 10° NNW 21:20:44 49° N 21:20:44 49° N
H-2A R/B 4.3 21:30:01 14° NNE 21:30:01 14° NNE 21:30:56 10° NNE
Meteor 2-20 Rocket 4.4 21:24:15 10° N 21:30:02 79° NNW 21:30:02 79° NNW
ERS-1 Rocket 3.7 21:35:49 50° WNW 21:35:49 50° WNW 21:39:56 10° NNW
Cosmos 1943 Rocket 3.7 21:58:22 10° NW 22:02:44 30° W 22:02:44 30° W
CENTAUR R/B 4.2 22:18:54 10° W 22:24:31 31° NNW 22:30:47 10° NNE
